Location: Sungai Bunut
(2.6333°N, 113.7333°E)
Time: 11:23:35
(UTC+00:00)

Transit 2A - Pass Details

Date: 11 December 2023
Orbit: 599 x 953 km, 66.7° (Epoch: 01 March)

Event Time Altitude Azimuth Distance (km) Brightness Sun altitude
Rises 17:04:09 0° 329° (NNW) 2,954 - -66.8°
Reaches altitude 10° 17:06:24 10° 322° (NW) 2,088 - -66.5°
Maximum altitude 17:10:56 46° 249° (WSW) 957 - -66.0°
Drops below altitude 10° 17:15:56 10° 177° (S) 2,307 - -65.3°
Sets 17:18:33 0° 171° (S) 3,299 - -64.9°
